Location: Bethlehem
(53.3832°N, 6.6089°E)
Time: 21:46:38
(UTC+00:00)

Daily predictions for brighter satellites

Satellite Brightness Start Highest point End
(mag) Time Altitude Azimuth Time Altitude Azimuth Time Altitude Azimuth
Cosmos 1869 Rocket 3.6 16:19:03 10° N 16:23:28 62° ENE 16:27:52 10° SSE
Cosmos 2322 Rocket 2.8 16:18:40 10° SW 16:24:11 57° NW 16:29:45 10° NNE
Meteor 1-16 Rocket 4.5 16:20:21 10° N 16:25:35 45° ENE 16:30:55 10° SE
Cosmos 2360 Rocket 2.6 16:21:35 10° SW 16:27:11 63° NW 16:32:51 10° NNE
AQUARIUS 4.4 16:24:33 10° SE 16:28:45 44° ENE 16:32:58 10° N
BREEZE-M TANK 4.4 16:26:14 10° WSW 16:29:35 28° S 16:33:22 10° ESE
Cosmos 2344 4.0 16:24:20 10° S 16:31:19 41° ESE 16:38:04 10° NE
SJ-12 4.1 16:29:33 10° S 16:33:23 72° WSW 16:37:16 10° NNW
SL-16 R/B 3.4 16:29:03 10° WSW 16:34:16 37° NW 16:39:33 10° NNE
Cosmos 1937 Rocket 4.2 16:31:31 10° NNW 16:36:08 32° NE 16:40:44 10° ESE
ASTEX 1 3.4 16:34:26 10° S 16:39:18 88° WSW 16:44:12 10° N
Meteor 1-31 Rocket 4.0 16:37:58 10° ESE 16:40:25 18° ENE 16:42:52 10° NNE
Cosmos 1943 Rocket 2.2 16:37:55 10° NNW 16:43:36 67° NE 16:49:12 10° SE
CZ-2D R/B 3.7 16:40:51 10° S 16:44:13 56° WSW 16:47:36 10° NNW
ARIANE 5 R/B 3.7 16:42:06 10° S 16:47:08 49° W 16:52:12 10° NNW
CZ-2C R/B 4.2 16:48:32 11° E 16:50:02 13° ENE 16:51:43 10° NNE
RESURS DK-1 2.3 16:46:38 10° NNW 16:50:38 63° NE 16:54:38 10° SE
Cosmos 2237 Rocket 3.1 16:46:28 10° SSE 16:51:18 29° ESE 16:56:08 10° NE
Cosmos 1515 Rocket 4.5 16:50:38 10° SSW 16:54:49 50° WNW 16:59:05 10° N
Tsikada Rocket 4.0 16:49:23 10° S 16:55:33 85° E 17:01:46 10° NNE
Cosmos 1862 Rocket 4.4 16:51:53 10° SSE 16:55:42 30° E 16:59:35 10° NNE
BlueWalker 3 1.8 16:52:43 10° W 16:56:24 87° S 16:59:51 12° E
Cosmos 1455 2.1 16:53:56 10° NNW 16:57:09 67° W 17:00:19 10° S
USA 81 4.1 16:52:20 10° S 16:57:37 89° W 17:02:55 10° N
Cosmos 2278 Rocket 2.3 16:52:01 10° NNW 16:57:44 84° WSW 17:03:23 10° SSE
BREEZE-M DEB (TANK) 3.1 16:56:18 10° SSW 16:58:07 19° SSE 17:00:08 11° ESE
COSMO-SKYMED 1 3.6 16:56:15 10° NE 16:59:56 26° E 17:03:35 10° SSE
Cosmos 2219 Rocket 2.6 16:56:43 10° SW 17:02:15 61° NW 17:07:51 10° NNE
NOAA 6 4.5 16:57:41 10° SE 17:02:22 38° ENE 17:07:05 10° N
SJ-7 4.1 16:58:51 10° SSE 17:02:38 81° ENE 17:06:29 10° NNW
ARGOS Delta rocket 3.7 16:58:38 10° SSE 17:03:16 89° ENE 17:07:45 10° NNW
ISS -1.8 17:01:46 10° SSW 17:04:10 19° SE 17:06:06 12° ESE
CZ-4B R/B 4.4 17:02:08 10° SE 17:05:14 28° ENE 17:08:18 10° N
CZ-4C R/B 3.2 17:02:12 10° SSE 17:05:33 21° ESE 17:08:01 15° ENE
CSL-04 DEB 4.4 17:03:16 10° SSE 17:07:07 75° WSW 17:10:55 10° NNW
Meteor 1-21 4.2 17:04:25 10° S 17:10:01 75° E 17:15:42 10° NNE
USA 306 1.3 17:09:24 10° W 17:11:30 76° N 17:12:55 24° E
SL-14 R/B 4.4 17:08:39 10° SW 17:12:14 42° WNW 17:15:53 10° N
Cosmos 1763 Rocket 3.4 17:07:58 10° SSW 17:13:07 69° ESE 17:18:15 10° NNE
Cosmos 1733 Rocket 3.0 17:08:52 10° N 17:13:17 76° ENE 17:17:41 10° SSE
Spot 4 Rocket 4.4 17:08:30 10° S 17:13:37 71° WSW 17:18:46 10° NNW
YAOGAN 1 3.1 17:10:25 10° SE 17:14:18 35° ENE 17:18:12 10° N
Cosmos 540 Rocket 3.5 17:13:48 10° S 17:18:51 61° ESE 17:23:47 11° NNE
Landsat 7 3.8 17:15:47 10° SSE 17:20:24 60° ENE 17:25:03 10° N
Cosmos 2322 3.9 17:15:52 10° SW 17:21:36 78° WNW 17:27:22 10° NNE
USA 215 3.3 17:16:12 16° ENE 17:21:39 79° NNW 17:28:12 10° WSW
SPOT 1/Viking Rocket 4.1 17:17:35 10° SE 17:22:12 34° ENE 17:26:50 10° N
Cosmos 468 Rocket 4.1 17:17:45 10° S 17:22:47 53° ESE 17:27:14 13° NE
Cosmos 2279 Rocket 4.1 17:19:05 10° NNW 17:25:18 79° W 17:31:29 10° S
Cosmos 2228 Rocket 3.1 17:22:04 10° S 17:26:32 63° E 17:31:05 10° NNE
Cosmos 1656 Rocket 3.9 17:22:55 10° NNW 17:28:12 45° NE 17:33:23 10° ESE
Cosmos 1898 Rocket 3.5 17:23:00 10° NNW 17:28:20 86° ENE 17:33:40 10° SSE
Cosmos 1980 Rocket 4.3 17:26:19 10° NW 17:29:17 14° N 17:32:16 10° NNE
Resurs 1-3 4.2 17:26:05 10° SE 17:29:56 32° ENE 17:33:48 10° N
Aureole 1 Rocket 4.5 17:24:30 10° NNW 17:32:17 84° WSW 17:39:20 10° SSE
Cosmos 841 Rocket 4.1 17:27:38 10° SSE 17:32:20 34° ESE 17:35:00 21° NE
Dummy Sat-01 4.4 17:31:25 10° S 17:35:05 77° E 17:38:46 10° N
Okean 1-7 3.2 17:36:07 10° SSE 17:40:14 47° E 17:43:21 16° NNE
SL-16 R/B 3.3 17:36:22 10° SSE 17:40:39 23° ESE 17:40:55 23° E
Cosmos 1980 3.7 17:35:12 10° SSW 17:40:46 65° ESE 17:44:57 18° NE
Cosmos 1953 3.0 17:38:27 10° NNW 17:42:06 52° W 17:45:43 10° S
Cosmos 1300 Rocket 4.4 17:39:21 10° N 17:42:41 28° NE 17:42:41 28° NE
NOSS 8 (E) 4.3 17:39:51 10° SW 17:43:43 74° SE 17:44:41 42° ENE
CZ-4 R/B 3.6 17:48:42 11° NNE 17:48:42 11° NNE 17:48:59 10° NNE
SKYMED 2 3.5 17:43:56 10° NNE 17:48:14 69° ESE 17:52:33 10° S
ADEOS 4.2 17:48:47 27° E 17:50:28 34° ENE 17:55:08 10° N
NOSS 0 Rocket 3.9 17:44:34 10° SSW 17:50:43 90° WSW 17:55:40 17° NE
Cosmos 1818 3.5 17:45:52 10° NW 17:51:23 86° NE 17:56:19 13° SE
SL-16 R/B 4.5 17:47:51 10° N 17:52:43 24° NW 17:57:34 10° W
ATLAS 2AS CENTAUR R/B 2.6 17:46:08 10° NW 17:53:02 83° NE 17:59:05 13° SE
Cosmos 2369 Rocket 2.4 17:48:54 10° NNW 17:54:20 48° NE 17:56:55 28° ESE
Cosmos 1092 Rocket 4.4 17:49:46 10° SSE 17:55:24 39° E 18:01:06 10° NNE
NOSS 8 (H) 4.2 17:51:43 10° SW 17:55:26 82° SE 17:55:55 61° ENE
Resurs 01 Rocket 3.2 17:57:26 20° NNE 17:57:26 20° NNE 17:59:13 10° N
ACS3 Solar Sail 1.9 17:50:56 10° SSE 17:57:21 88° ENE 18:03:47 10° NNW
COSMOS 2428 3.3 17:52:30 10° SW 17:58:06 55° NW 18:02:53 14° NNE
Cosmos 2333 Rocket 4.0 17:55:38 10° W 18:00:06 23° NNW 18:04:33 10° NNE
Helios 1B rocket 4.4 18:08:10 14° N 18:08:10 14° N 18:08:49 10° N
BREEZE-M DEB (TANK) 3.4 17:58:41 10° WSW 18:06:21 55° S 18:07:22 40° SE
Cosmos 1908 Rocket 3.4 18:01:59 10° N 18:06:22 85° E 18:10:41 10° SSE
NOSS 8 (F) 4.3 18:02:39 10° SW 18:06:23 72° NW 18:06:43 64° N
Cosmos 2322 Rocket 4.2 18:05:25 10° WNW 18:09:28 20° NNW 18:13:26 10° NNE
EO 1 Delta rocket 3.8 18:07:20 10° N 18:12:12 85° WNW 18:16:49 10° SSW
Cosmos 2360 Rocket 4.1 18:08:04 10° WNW 18:12:20 21° NNW 18:16:23 11° NNE
Meteor 2-12 Rocket 4.4 18:06:42 10° S 18:12:39 60° E 18:18:40 10° NNE
Meteor 1-31 Rocket 3.3 18:10:07 10° S 18:13:36 52° WSW 18:17:08 10° NNW
CZ-4B DEB 4.4 18:12:01 37° ESE 18:13:38 48° ENE 18:18:54 10° N
Cosmos 2297 3.6 18:11:42 10° NNW 18:17:29 72° NE 18:20:17 31° SE
CZ-4B R/B 4.2 18:18:58 34° NNE 18:18:58 34° NNE 18:22:18 10° N
Cosmos 1937 Rocket 4.2 18:13:17 10° NNW 18:18:18 54° WSW 18:23:19 10° S
Okean 2 4.3 18:14:33 10° SSW 18:18:21 45° WNW 18:22:01 11° N
Cosmos 2263 4.3 18:12:46 10° NNW 18:18:21 54° NE 18:19:34 45° E
SL-16 R/B 4.4 18:16:41 10° NW 18:20:06 16° NNW 18:23:11 11° NNE
CSL-04 Rocket 4.5 18:21:41 32° NNE 18:21:41 32° NNE 18:25:13 10° N
CZ-2C R/B 2.6 18:22:19 67° WSW 18:22:26 68° WSW 18:25:49 10° NNW
Cosmos 2026 Rocket 4.0 18:17:47 10° S 18:24:02 63° E 18:30:20 10° NNE
Cosmos 1943 Rocket 4.3 18:22:12 10° NW 18:26:55 28° WSW 18:31:35 10° SSW
BREEZE-M DEB (TANK) 3.6 18:16:01 10° WSW 18:27:49 51° S 18:28:55 43° SE
Cosmos 1428 Rocket 4.4 18:24:41 10° S 18:30:53 88° E 18:37:05 10° N
BlueWalker 3 2.8 18:30:34 10° W 18:33:53 42° SW 18:33:53 42° SW
Cosmos 2237 Rocket 2.5 18:29:19 10° SW 18:34:59 64° NW 18:37:58 28° NNE
COSMO-SKYMED 1 3.6 18:32:35 13° N 18:36:17 45° WNW 18:40:26 10° SW
ISS -1.9 18:37:10 10° WSW 18:39:01 28° SW 18:39:01 28° SW
Cosmos 1782 Rocket 3.6 18:37:49 10° NNW 18:41:41 69° NW 18:41:41 69° NW
Cosmos 2344 3.7 18:38:03 10° WSW 18:45:19 64° NNW 18:48:48 33° NE
Cosmos 2219 Rocket 4.2 18:43:12 10° WNW 18:47:21 21° NNW 18:50:23 14° N
YAOGAN 1 4.3 18:46:22 10° SSW 18:50:14 33° W 18:54:07 10° NNW
CZ-4C R/B 1.9 18:48:15 10° SW 18:52:55 84° NW 18:53:04 82° N
Cosmos 1125 Rocket 4.4 18:49:43 10° NNW 18:53:08 37° N 18:53:08 37° N
ATLAS 5 CENTAUR R/B 3.7 18:54:18 10° SW 18:54:38 13° SW 18:54:38 13° SW
CZ-4B R/B 4.0 19:00:45 37° N 19:00:45 37° N 19:04:03 10° NNW
Meteor 1-24 Rocket 3.9 18:53:08 10° S 18:58:09 62° SSE 18:58:09 62° SSE
Cosmos 1703 Rocket 4.3 18:57:42 10° SSW 19:02:03 52° WNW 19:02:12 52° WNW
USA 215 3.3 19:03:32 59° NE 19:04:30 66° N 19:10:58 10° WNW
Meteor 2-5 Rocket 4.4 19:03:52 10° S 19:07:38 43° S 19:07:38 43° S
Cosmos 841 Rocket 4.3 19:08:57 10° SW 19:14:01 47° NW 19:15:03 42° NNW
Cosmos 1980 Rocket 4.3 19:12:27 10° NNW 19:14:42 15° N 19:14:42 15° N
Cosmos 1553 Rocket 4.1 19:16:55 10° NNW 19:23:03 72° W 19:23:51 63° SW
SL-16 R/B 2.7 19:18:28 10° SW 19:22:50 55° SW 19:22:50 55° SW
ADEOS 4.4 19:29:31 47° WSW 19:29:49 48° W 19:34:53 10° NNW
Resurs 01 Rocket 4.0 19:34:51 17° NNW 19:34:51 17° NNW 19:36:00 10° NNW
Cosmos 2369 Rocket 3.2 19:33:06 10° NW 19:38:18 40° WSW 19:38:45 39° WSW
ACS3 Solar Sail 4.1 19:36:57 10° SW 19:41:43 22° W 19:46:31 10° NW
ATLAS 2AS CENTAUR R/B 4.2 19:37:34 10° WNW 19:43:19 30° WSW 19:46:35 20° SSW
Cosmos 2237 Rocket 4.3 20:15:50 10° W 20:19:49 21° NW 20:19:49 21° NW
